Regional Weather Roundup
Issued by NWS

Home | Current Version | Previous Version | Text Only | Print | Product List | Glossary On
Versions: 1 2 3 4 5 6 7 8 9 10 11 12 13 14 15 16 17 18 19 20 21 22 23 24 25 26 27 28 29 30 31 32 33 34 35 36 37 38 39 40 41 42 43 44 45 46 47 48 49 50
000
ASUS43 KLMK 301610
RWRKY
KENTUCKY REGIONAL WEATHER ROUNDUP
NATIONAL WEATHER SERVICE LOUISVILLE KY
1200 PM EDT MON MAR 30 2015

NOTE "FAIR" INDICATES FEW OR NO CLOUDS BELOW 12,000 FEET
WITH NO SIGNIFICANT WEATHER AND/OR OBSTRUCTIONS TO VISIBILITY.

KYZ001>023-026-027-061>063-070>075-301700-
WESTERN AND SOUTH CENTRAL KENTUCKY

CITY           SKY/WX    TMP DP  RH WIND       PRES   REMARKS
PADUCAH        MOSUNNY   61  32  33 N7        30.22F
HENDERSON      SUNNY     55  34  44 W7        30.22S
OWENSBORO      SUNNY     56  33  41 N7        30.22R
HOPKINSVILLE   SUNNY     59  33  37 NW12      30.21S
BOWLING GREEN  SUNNY     60  31  33 NW10      30.20R
GLASGOW        SUNNY     57  32  38 NW5G16    30.19R
$$

KYZ024-025-028>034-038-045-046-053-301700-
NORTH CENTRAL KENTUCKY

CITY           SKY/WX    TMP DP  RH WIND       PRES   REMARKS
LOUISVILLE/SDF MOSUNNY   58  31  35 W18       30.17R
LOUISVILLE/LOU SUNNY     57  33  40 NW12G20   30.17R
FORT KNOX      SUNNY     55  31  40 NW12G22   30.16R
$$

KYZ035>037-039>044-047>052-055>060-089>105-301700-
NORTHEAST KENTUCKY

CITY           SKY/WX    TMP DP  RH WIND       PRES   REMARKS
LEXINGTON      MOSUNNY   54  31  41 W6G18     30.15R
COVINGTON      MOSUNNY   53  33  46 NW17G23   30.12R
FRANKFORT      MOSUNNY   54  32  43 W10       30.15R
$$

KYZ054-064>069-076>088-106>120-301700-
SOUTHEAST KENTUCKY

CITY           SKY/WX    TMP DP  RH WIND       PRES   REMARKS
JACKSON        MOSUNNY   54  30  40 VRB6      30.13R
LONDON         MOSUNNY   55  34  45 W12       30.15R
SOMERSET       MOSUNNY   54  34  47 NW9       30.18R
MIDDLESBORO    MOSUNNY   56  38  50 N6G17     30.14S
MONTICELLO     NOT AVBL
$$



USA.gov is the U.S. government's official web portal to all federal, state and local government web resources and services.